| time (UTC) | temp C | wind direction | speed KPH | gust KPH | rain 1hr cm | rain 24hr cm | rain mn cm | humidity % | barometer mb |
| 20260504184313 | 22 | 270 | 24.1 | 43.5 | 0.00 | 0.00 | 0.00 | 52 | 1004.2 |
| 20260504183809 | 23 | 243 | 25.7 | 49.9 | 0.00 | 0.00 | 0.00 | 50 | 1003.8 |
| 20260504183307 | 22 | 226 | 24.1 | 40.2 | 0.00 | 0.00 | 0.00 | 52 | 1004.2 |
| 20260504182804 | 22 | 243 | 25.7 | 35.4 | 0.00 | 0.00 | 0.00 | 51 | 1004.0 |
| 20260504182301 | 22 | 220 | 30.6 | 38.6 | 0.00 | 0.00 | 0.00 | 50 | 1004.1 |
| 20260504181759 | 23 | 210 | 16.1 | 27.4 | 0.00 | 0.00 | 0.00 | 51 | 1004.1 |
| 20260504181256 | 23 | 237 | 37.0 | 43.5 | 0.00 | 0.00 | 0.00 | 49 | 1004.0 |
| 20260504180755 | 23 | 258 | 22.5 | 37.0 | 0.00 | 0.00 | 0.00 | 51 | 1004.1 |
| 20260504180253 | 23 | 231 | 25.7 | 33.8 | 0.00 | 0.00 | 0.00 | 50 | 1004.2 |
| 20260504175750 | 22 | 257 | 32.2 | 38.6 | 0.00 | 0.00 | 0.00 | 50 | 1004.0 |
| 20260504175247 | 22 | 219 | 20.9 | 30.6 | 0.00 | 0.00 | 0.00 | 51 | 1004.0 |
| 20260504174745 | 22 | 233 | 27.4 | 30.6 | 0.00 | 0.00 | 0.00 | 49 | 1003.9 |
| 20260504174243 | 22 | 218 | 19.3 | 35.4 | 0.00 | 0.00 | 0.00 | 51 | 1004.0 |
| 20260504173739 | 22 | 251 | 20.9 | 37.0 | 0.00 | 0.00 | 0.00 | 50 | 1003.9 |
| 20260504173236 | 22 | 252 | 33.8 | 40.2 | 0.00 | 0.00 | 0.00 | 51 | 1004.1 |
| 20260504172733 | 22 | 258 | 27.4 | 35.4 | 0.00 | 0.00 | 0.00 | 50 | 1004.4 |
| 20260504172229 | 22 | 266 | 19.3 | 27.4 | 0.00 | 0.00 | 0.00 | 52 | 1004.3 |
| 20260504171726 | 22 | 246 | 19.3 | 30.6 | 0.00 | 0.00 | 0.00 | 53 | 1004.4 |
| 20260504171223 | 22 | 243 | 38.6 | 41.8 | 0.00 | 0.00 | 0.00 | 51 | 1004.4 |
| 20260504170719 | 21 | 262 | 19.3 | 24.1 | 0.00 | 0.00 | 0.00 | 54 | 1004.5 |
| 20260504170217 | 21 | 253 | 24.1 | 35.4 | 0.00 | 0.00 | 0.00 | 54 | 1004.7 |
| 20260504160135 | 19 | 213 | 20.9 | 29.0 | 0.00 | 0.00 | 0.00 | 60 | 1005.5 |
| 20260504151103 | 17 | 206 | 17.7 | 24.1 | 0.00 | 0.00 | 0.00 | 63 | 1005.7 |
| 20260504150600 | 17 | 230 | 14.5 | 22.5 | 0.00 | 0.00 | 0.00 | 64 | 1005.7 |
| 20260504141026 | 16 | 191 | 20.9 | 24.1 | 0.00 | 0.00 | 0.00 | 66 | 1006.1 |
| 20260504140522 | 16 | 226 | 17.7 | 22.5 | 0.00 | 0.00 | 0.00 | 66 | 1006.0 |
| 20260504130447 | 12 | 230 | 17.7 | 22.5 | 0.00 | 0.00 | 0.00 | 69 | 1006.5 |
| 20260504110334 | 8 | 187 | 11.3 | 14.5 | 0.00 | 0.00 | 0.00 | 78 | 1006.6 |
| 20260504100251 | 8 | 203 | 16.1 | 20.9 | 0.00 | 0.00 | 0.00 | 76 | 1006.7 |
| 20260504081645 | 9 | 199 | 14.5 | 17.7 | 0.00 | 0.00 | 0.00 | 74 | 1007.4 |
| 20260504081141 | 9 | 205 | 14.5 | 17.7 | 0.00 | 0.00 | 0.00 | 74 | 1007.6 |
| 20260504080637 | 9 | 199 | 16.1 | 17.7 | 0.00 | 0.00 | 0.00 | 74 | 1007.7 |
| 20260504080134 | 9 | 202 | 14.5 | 22.5 | 0.00 | 0.00 | 0.00 | 74 | 1007.7 |
| 20260504050450 | 11 | 185 | 14.5 | 17.7 | 0.00 | 0.00 | 0.00 | 66 | 1009.4 |
| 20260504045947 | 11 | 195 | 17.7 | 20.9 | 0.00 | 0.00 | 0.00 | 65 | 1009.1 |
| 20260504045443 | 11 | 187 | 17.7 | 24.1 | 0.00 | 0.00 | 0.00 | 64 | 1009.1 |
| 20260504044939 | 11 | 191 | 19.3 | 22.5 | 0.00 | 0.00 | 0.00 | 64 | 1009.4 |
| 20260504044437 | 11 | 178 | 19.3 | 22.5 | 0.00 | 0.00 | 0.00 | 64 | 1009.2 |
| 20260504043934 | 11 | 182 | 20.9 | 24.1 | 0.00 | 0.00 | 0.00 | 65 | 1009.4 |
| 20260504043431 | 11 | 181 | 20.9 | 24.1 | 0.00 | 0.00 | 0.00 | 64 | 1009.0 |
| 20260504042929 | 11 | 144 | 17.7 | 24.1 | 0.00 | 0.00 | 0.00 | 64 | 1009.3 |
| 20260504042425 | 11 | 165 | 16.1 | 20.9 | 0.00 | 0.00 | 0.00 | 65 | 1009.3 |
| 20260504041921 | 11 | 176 | 16.1 | 24.1 | 0.00 | 0.00 | 0.00 | 66 | 1009.7 |
| 20260504041418 | 11 | 173 | 19.3 | 22.5 | 0.00 | 0.00 | 0.00 | 66 | 1009.7 |
| 20260504040914 | 11 | 168 | 16.1 | 17.7 | 0.00 | 0.00 | 0.00 | 67 | 1009.5 |
| 20260504040412 | 11 | 142 | 14.5 | 20.9 | 0.00 | 0.00 | 0.00 | 67 | 1009.8 |
| 20260504035908 | 11 | 173 | 14.5 | 20.9 | 0.00 | 0.03 | 0.03 | 67 | 1009.8 |
| 20260504035405 | 11 | 174 | 11.3 | 20.9 | 0.00 | 0.03 | 0.03 | 66 | 1009.7 |
| 20260504034902 | 11 | 172 | 16.1 | 24.1 | 0.00 | 0.03 | 0.03 | 66 | 1009.9 |
| 20260504034359 | 11 | 186 | 16.1 | 20.9 | 0.00 | 0.03 | 0.03 | 67 | 1009.9 |
| 20260504033856 | 10 | 181 | 14.5 | 17.7 | 0.00 | 0.03 | 0.03 | 68 | 1010.2 |
| 20260504033354 | 10 | 163 | 14.5 | 17.7 | 0.00 | 0.03 | 0.03 | 68 | 1009.9 |
| 20260504032850 | 10 | 177 | 11.3 | 16.1 | 0.00 | 0.03 | 0.03 | 69 | 1010.2 |
| 20260504032347 | 10 | 163 | 11.3 | 16.1 | 0.00 | 0.03 | 0.03 | 69 | 1009.9 |
| 20260504031844 | 10 | 170 | 11.3 | 20.9 | 0.00 | 0.03 | 0.03 | 69 | 1010.0 |
| 20260504031341 | 10 | 150 | 11.3 | 14.5 | 0.00 | 0.03 | 0.03 | 71 | 1010.2 |
| 20260504030838 | 10 | 161 | 11.3 | 14.5 | 0.00 | 0.03 | 0.03 | 71 | 1010.5 |
| 20260504030335 | 10 | 172 | 17.7 | 17.7 | 0.00 | 0.03 | 0.03 | 72 | 1010.3 |
| 20260504025831 | 10 | 158 | 16.1 | 17.7 | 0.00 | 0.03 | 0.03 | 71 | 1010.3 |
| 20260504025328 | 10 | 169 | 16.1 | 24.1 | 0.00 | 0.03 | 0.03 | 71 | 1010.1 |
| 20260504024825 | 10 | 170 | 16.1 | 20.9 | 0.00 | 0.03 | 0.03 | 72 | 1010.4 |
| 20260504024321 | 10 | 164 | 17.7 | 20.9 | 0.00 | 0.03 | 0.03 | 72 | 1010.6 |
| 20260504023818 | 10 | 156 | 19.3 | 22.5 | 0.00 | 0.03 | 0.03 | 72 | 1010.6 |
| 20260504023315 | 10 | 183 | 16.1 | 17.7 | 0.00 | 0.03 | 0.03 | 74 | 1010.6 |
| 20260504022811 | 9 | 162 | 16.1 | 17.7 | 0.00 | 0.03 | 0.03 | 75 | 1010.6 |
| 20260504022308 | 9 | 183 | 11.3 | 14.5 | 0.00 | 0.03 | 0.03 | 76 | 1010.5 |
| 20260504021804 | 9 | 168 | 11.3 | 14.5 | 0.00 | 0.03 | 0.03 | 77 | 1010.9 |
| 20260504021302 | 9 | 158 | 16.1 | 17.7 | 0.00 | 0.03 | 0.03 | 78 | 1010.7 |
| 20260504020758 | 9 | 166 | 16.1 | 16.1 | 0.00 | 0.03 | 0.03 | 78 | 1010.7 |
| 20260504020255 | 9 | 151 | 17.7 | 17.7 | 0.00 | 0.03 | 0.03 | 79 | 1010.5 |
| 20260504015751 | 9 | 174 | 12.9 | 22.5 | 0.00 | 0.03 | 0.03 | 78 | 1010.6 |
| 20260504015248 | 9 | 139 | 14.5 | 17.7 | 0.00 | 0.03 | 0.03 | 78 | 1010.9 |
| 20260504014743 | 9 | 164 | 16.1 | 20.9 | 0.00 | 0.03 | 0.03 | 76 | 1010.7 |
| 20260504014240 | 9 | 153 | 17.7 | 20.9 | 0.00 | 0.03 | 0.03 | 75 | 1010.7 |
| 20260504013738 | 9 | 145 | 19.3 | 22.5 | 0.00 | 0.03 | 0.03 | 75 | 1010.8 |
| 20260504013235 | 9 | 156 | 14.5 | 20.9 | 0.00 | 0.03 | 0.03 | 76 | 1010.7 |
| 20260504012732 | 9 | 151 | 16.1 | 20.9 | 0.00 | 0.03 | 0.03 | 77 | 1010.7 |
| 20260504012230 | 9 | 173 | 12.9 | 17.7 | 0.00 | 0.03 | 0.03 | 79 | 1010.8 |
| 20260504011726 | 9 | 148 | 14.5 | 17.7 | 0.00 | 0.03 | 0.03 | 78 | 1010.9 |
| 20260504011223 | 8 | 153 | 14.5 | 17.7 | 0.00 | 0.03 | 0.03 | 79 | 1010.7 |
| 20260504010719 | 8 | 156 | 11.3 | 22.5 | 0.00 | 0.03 | 0.03 | 79 | 1010.9 |
| 20260504010215 | 8 | 164 | 17.7 | 20.9 | 0.18 | 0.03 | 0.03 | 80 | 1010.9 |
| 20260504005711 | 8 | 147 | 14.5 | 22.5 | 0.18 | 0.03 | 0.03 | 80 | 1010.9 |
| 20260504005209 | 8 | 161 | 19.3 | 22.5 | 0.00 | 0.00 | 0.00 | 79 | 1010.6 |
| 20260504004707 | 9 | 179 | 14.5 | 24.1 | 0.00 | 0.00 | 0.00 | 78 | 1010.8 |
| 20260504004203 | 9 | 153 | 16.1 | 27.4 | 0.00 | 0.00 | 0.00 | 76 | 1010.7 |
| 20260504003700 | 9 | 177 | 17.7 | 24.1 | 0.00 | 0.00 | 0.00 | 75 | 1010.8 |
| 20260504003157 | 9 | 189 | 14.5 | 20.9 | 0.00 | 0.00 | 0.00 | 77 | 1011.0 |
| 20260504002653 | 9 | 202 | 14.5 | 16.1 | 0.00 | 0.00 | 0.00 | 79 | 1011.0 |
| 20260504002151 | 9 | 194 | 14.5 | 17.7 | 0.00 | 0.00 | 0.00 | 80 | 1010.9 |
| 20260504001649 | 9 | 175 | 16.1 | 17.7 | 0.00 | 0.00 | 0.00 | 79 | 1010.7 |
| 20260504001144 | 9 | 182 | 16.1 | 17.7 | 0.00 | 0.00 | 0.00 | 80 | 1010.7 |
| 20260504000642 | 8 | 179 | 14.5 | 17.7 | 0.00 | 0.00 | 0.00 | 80 | 1010.8 |
| 20260504000139 | 9 | 158 | 11.3 | 14.5 | 0.00 | 0.00 | 0.00 | 80 | 1010.8 |
| 20260503235637 | 8 | 164 | 14.5 | 17.7 | 0.00 | 0.00 | 0.00 | 80 | 1010.7 |
| 20260503235133 | 8 | 147 | 12.9 | 14.5 | 0.00 | 0.00 | 0.00 | 80 | 1011.0 |
| 20260503234632 | 8 | 157 | 11.3 | 12.9 | 0.00 | 0.00 | 0.00 | 80 | 1011.0 |
| 20260503234130 | 8 | 148 | 11.3 | 16.1 | 0.00 | 0.00 | 0.00 | 81 | 1010.8 |
| 20260503233626 | 8 | 135 | 19.3 | 22.5 | 0.00 | 0.00 | 0.00 | 80 | 1010.7 |
| 20260503233122 | 8 | 150 | 14.5 | 17.7 | 0.00 | 0.00 | 0.00 | 80 | 1011.2 |
| 20260503232619 | 8 | 166 | 12.9 | 14.5 | 0.00 | 0.00 | 0.00 | 80 | 1011.2 |
| 20260503232116 | 8 | 151 | 12.9 | 20.9 | 0.00 | 0.00 | 0.00 | 79 | 1011.1 |
| 20260503231614 | 8 | 130 | 16.1 | 22.5 | 0.00 | 0.00 | 0.00 | 81 | 1010.9 |
| 20260503231110 | 8 | 138 | 16.1 | 17.7 | 0.00 | 0.00 | 0.00 | 81 | 1011.2 |
| 20260503230608 | 8 | 140 | 16.1 | 16.1 | 0.00 | 0.00 | 0.00 | 81 | 1011.1 |
| 20260503230104 | 8 | 138 | 12.9 | 17.7 | 0.00 | 0.00 | 0.00 | 81 | 1011.1 |
| 20260503225602 | 8 | 142 | 12.9 | 16.1 | 0.00 | 0.00 | 0.00 | 80 | 1011.4 |
| 20260503225056 | 8 | 140 | 14.5 | 16.1 | 0.00 | 0.00 | 0.00 | 79 | 1011.7 |
| 20260503224554 | 8 | 145 | 9.7 | 11.3 | 0.00 | 0.00 | 0.00 | 81 | 1011.7 |
| 20260503224052 | 8 | 134 | 11.3 | 14.5 | 0.00 | 0.00 | 0.00 | 80 | 1011.7 |
| 20260503223550 | 8 | 134 | 11.3 | 12.9 | 0.00 | 0.00 | 0.00 | 80 | 1011.8 |
| 20260503223045 | 8 | 117 | 9.7 | 12.9 | 0.00 | 0.00 | 0.00 | 81 | 1012.0 |
| 20260503222543 | 8 | 141 | 12.9 | 14.5 | 0.00 | 0.00 | 0.00 | 80 | 1012.1 |
| 20260503222041 | 8 | 142 | 12.9 | 12.9 | 0.00 | 0.00 | 0.00 | 79 | 1012.2 |
| 20260503221539 | 8 | 154 | 11.3 | 14.5 | 0.00 | 0.00 | 0.00 | 79 | 1012.2 |
| 20260503221036 | 8 | 158 | 9.7 | 12.9 | 0.00 | 0.00 | 0.00 | 81 | 1012.2 |
| 20260503220532 | 8 | 203 | 6.4 | 11.3 | 0.00 | 0.00 | 0.00 | 80 | 1012.8 |
| 20260503220029 | 8 | 217 | 14.5 | 16.1 | 0.00 | 0.00 | 0.00 | 80 | 1012.9 |
| 20260503215526 | 8 | 236 | 16.1 | 22.5 | 0.00 | 0.00 | 0.00 | 80 | 1013.1 |
| 20260503215023 | 8 | 255 | 12.9 | 25.7 | 0.00 | 0.00 | 0.00 | 81 | 1013.3 |
| 20260503214522 | 8 | 245 | 20.9 | 33.8 | 0.00 | 0.00 | 0.00 | 79 | 1013.3 |
| 20260503214018 | 9 | 248 | 22.5 | 38.6 | 0.00 | 0.00 | 0.00 | 76 | 1013.3 |
| 20260503213516 | 9 | 270 | 24.1 | 33.8 | 0.00 | 0.00 | 0.00 | 74 | 1013.3 |
| 20260503213013 | 10 | 256 | 35.4 | 46.7 | 0.00 | 0.00 | 0.00 | 69 | 1013.2 |
| 20260503212510 | 10 | 258 | 40.2 | 43.5 | 0.00 | 0.00 | 0.00 | 67 | 1013.2 |
| 20260503212008 | 10 | 236 | 30.6 | 37.0 | 0.00 | 0.00 | 0.00 | 65 | 1013.0 |
| 20260503211504 | 11 | 253 | 35.4 | 38.6 | 0.00 | 0.00 | 0.00 | 62 | 1013.0 |
| 20260503211000 | 11 | 259 | 22.5 | 48.3 | 0.00 | 0.00 | 0.00 | 62 | 1013.0 |
| 20260503210457 | 11 | 249 | 30.6 | 49.9 | 0.00 | 0.00 | 0.00 | 61 | 1013.1 |
| 20260503205957 | 12 | 253 | 33.8 | 57.9 | 0.00 | 0.00 | 0.00 | 55 | 1012.6 |
| 20260503205454 | 14 | 251 | 25.7 | 43.5 | 0.00 | 0.00 | 0.00 | 42 | 1012.4 |
| 20260503204950 | 14 | 255 | 20.9 | 35.4 | 0.00 | 0.00 | 0.00 | 42 | 1012.4 |
| 20260503204448 | 14 | 259 | 22.5 | 25.7 | 0.00 | 0.00 | 0.00 | 40 | 1012.5 |
| 20260503203944 | 15 | 255 | 22.5 | 30.6 | 0.00 | 0.00 | 0.00 | 40 | 1012.5 |
| 20260503203442 | 15 | 242 | 19.3 | 35.4 | 0.00 | 0.00 | 0.00 | 39 | 1012.4 |
| 20260503202938 | 15 | 192 | 37.0 | 41.8 | 0.00 | 0.00 | 0.00 | 38 | 1012.3 |
| 20260503202437 | 15 | 227 | 24.1 | 29.0 | 0.00 | 0.00 | 0.00 | 39 | 1012.7 |
| 20260503201935 | 15 | 248 | 27.4 | 33.8 | 0.00 | 0.00 | 0.00 | 39 | 1012.7 |
| 20260503201432 | 15 | 209 | 16.1 | 20.9 | 0.00 | 0.00 | 0.00 | 39 | 1012.6 |
| 20260503200930 | 15 | 226 | 16.1 | 30.6 | 0.00 | 0.00 | 0.00 | 38 | 1012.9 |
| 20260503200426 | 15 | 253 | 27.4 | 33.8 | 0.00 | 0.00 | 0.00 | 39 | 1012.8 |
| 20260503195922 | 15 | 259 | 16.1 | 30.6 | 0.00 | 0.00 | 0.00 | 39 | 1012.8 |
| 20260503195420 | 15 | 250 | 25.7 | 35.4 | 0.00 | 0.00 | 0.00 | 38 | 1013.2 |
| 20260503194916 | 15 | 255 | 24.1 | 30.6 | 0.00 | 0.00 | 0.00 | 38 | 1013.3 |
| 20260503194413 | 15 | 253 | 27.4 | 35.4 | 0.00 | 0.00 | 0.00 | 37 | 1013.0 |
| 20260503193909 | 15 | 272 | 24.1 | 37.0 | 0.00 | 0.00 | 0.00 | 39 | 1013.3 |
| 20260503193404 | 15 | 243 | 27.4 | 33.8 | 0.00 | 0.00 | 0.00 | 38 | 1013.2 |
| 20260503192900 | 15 | 232 | 25.7 | 41.8 | 0.00 | 0.00 | 0.00 | 37 | 1013.1 |
| 20260503192356 | 15 | 248 | 27.4 | 37.0 | 0.00 | 0.00 | 0.00 | 37 | 1013.1 |
| 20260503191853 | 15 | 238 | 27.4 | 30.6 | 0.00 | 0.00 | 0.00 | 37 | 1013.2 |
| 20260503191350 | 15 | 247 | 30.6 | 35.4 | 0.00 | 0.00 | 0.00 | 37 | 1013.1 |
| 20260503190846 | 15 | 223 | 29.0 | 40.2 | 0.00 | 0.00 | 0.00 | 36 | 1013.2 |
| 20260503190344 | 15 | 237 | 24.1 | 38.6 | 0.00 | 0.00 | 0.00 | 39 | 1013.3 |
| 20260503185841 | 15 | 246 | 25.7 | 33.8 | 0.00 | 0.00 | 0.00 | 37 | 1013.5 |
| 20260503185337 | 15 | 238 | 30.6 | 40.2 | 0.00 | 0.00 | 0.00 | 36 | 1013.6 |
| 20260503184836 | 15 | 195 | 24.1 | 27.4 | 0.00 | 0.00 | 0.00 | 37 | 1013.8 |